timestamp,wind_dir_avg,wind_spd_avg,wind_spd_max_dir,wind_spd_gust,battery_voltage,lat,long
2023-11-30 00:04:00+00:00,259.0,7.96,264.0,9.44,12.01,47.59359,-54.27349
2023-11-30 00:14:00+00:00,267.0,8.45,267.0,9.86,12.01,47.59359,-54.27349
2023-11-30 00:24:00+00:00,265.0,8.38,268.0,9.41,12.01,47.59359,-54.27349
2023-11-30 00:34:00+00:00,276.0,9.22,276.0,10.91,12.01,47.59359,-54.27349
2023-11-30 00:44:00+00:00,270.0,9.98,259.0,11.53,12.01,47.59359,-54.27349
2023-11-30 00:54:00+00:00,264.0,10.22,261.0,11.81,12.01,47.59359,-54.27349
2023-11-30 01:04:00+00:00,267.0,9.75,263.0,11.99,12.01,47.59359,-54.27349
2023-11-30 01:14:00+00:00,268.0,9.57,271.0,11.41,12.01,47.59359,-54.27349
2023-11-30 01:24:00+00:00,273.0,7.99,268.0,9.13,12.01,47.59359,-54.27349
2023-11-30 01:34:00+00:00,270.0,8.98,271.0,10.42,12.01,47.59359,-54.27349
2023-11-30 01:44:00+00:00,255.0,7.9,254.0,9.41,12.01,47.59359,-54.27349
2023-11-30 01:54:00+00:00,271.0,6.53,277.0,8.0,12.01,47.59359,-54.27349
2023-11-30 02:04:00+00:00,263.0,6.66,263.0,8.28,12.01,47.59359,-54.27349
2023-11-30 02:14:00+00:00,263.0,5.19,264.0,5.96,12.01,47.59359,-54.27349
2023-11-30 02:24:00+00:00,254.0,7.59,257.0,9.22,12.01,47.59359,-54.27349
2023-11-30 02:34:00+00:00,252.0,7.31,248.0,9.16,12.01,47.59359,-54.27349
2023-11-30 02:44:00+00:00,249.0,7.61,252.0,9.36,12.01,47.59359,-54.27349
2023-11-30 02:54:00+00:00,253.0,7.7,256.0,9.04,12.01,47.59359,-54.27349
2023-11-30 03:04:00+00:00,259.0,8.29,252.0,9.7,12.01,47.59359,-54.27349
2023-11-30 03:14:00+00:00,250.0,8.51,250.0,9.94,12.01,47.59359,-54.27349
2023-11-30 03:24:00+00:00,247.0,9.05,251.0,10.75,12.01,47.59359,-54.27349
2023-11-30 03:34:00+00:00,248.0,8.51,250.0,9.91,12.01,47.59359,-54.27349
2023-11-30 03:44:00+00:00,246.0,9.1,244.0,10.15,12.01,47.59359,-54.27349
2023-11-30 03:54:00+00:00,258.0,9.37,258.0,10.63,12.01,47.59359,-54.27349
2023-11-30 04:04:00+00:00,249.0,9.68,251.0,10.97,12.01,47.59359,-54.27349
2023-11-30 04:14:00+00:00,244.0,9.58,241.0,11.17,12.01,47.59359,-54.27349
2023-11-30 04:24:00+00:00,251.0,8.76,250.0,10.45,12.01,47.59359,-54.27349
2023-11-30 04:34:00+00:00,246.0,9.2,243.0,11.19,12.01,47.59359,-54.27349
2023-11-30 04:44:00+00:00,255.0,8.62,251.0,10.89,12.01,47.59359,-54.27349
2023-11-30 04:54:00+00:00,252.0,7.7,252.0,9.55,12.01,47.59359,-54.27349
2023-11-30 05:04:00+00:00,250.0,9.11,251.0,10.8,12.01,47.59359,-54.27349
2023-11-30 05:14:00+00:00,247.0,10.69,244.0,11.76,12.01,47.59359,-54.27349
2023-11-30 05:24:00+00:00,244.0,9.2,242.0,10.88,12.01,47.59359,-54.27349
2023-11-30 05:34:00+00:00,246.0,8.94,247.0,10.05,12.01,47.59359,-54.27349
2023-11-30 05:44:00+00:00,246.0,8.59,247.0,10.14,12.01,47.59359,-54.27349
2023-11-30 05:54:00+00:00,241.0,7.4,239.0,8.74,12.01,47.59359,-54.27349
2023-11-30 06:04:00+00:00,246.0,7.83,247.0,9.02,12.01,47.59359,-54.27349
2023-11-30 06:14:00+00:00,241.0,9.06,239.0,10.15,12.01,47.59359,-54.27349
2023-11-30 06:24:00+00:00,249.0,8.13,251.0,9.53,12.01,47.59359,-54.27349
2023-11-30 06:34:00+00:00,255.0,9.08,257.0,10.57,12.01,47.59359,-54.27349
2023-11-30 06:44:00+00:00,247.0,10.22,245.0,11.67,12.01,47.59359,-54.27349
2023-11-30 06:54:00+00:00,257.0,6.58,265.0,7.96,12.01,47.59359,-54.27349
2023-11-30 07:04:00+00:00,260.0,6.27,260.0,7.48,12.01,47.59359,-54.27349
2023-11-30 07:14:00+00:00,250.0,7.56,250.0,9.52,12.01,47.59359,-54.27349
2023-11-30 07:24:00+00:00,252.0,10.12,245.0,11.5,12.01,47.59359,-54.27349
2023-11-30 07:34:00+00:00,256.0,7.26,253.0,9.28,12.01,47.59359,-54.27349
2023-11-30 07:44:00+00:00,269.0,7.6,263.0,8.99,12.01,47.59359,-54.27349
2023-11-30 07:54:00+00:00,268.0,6.55,269.0,7.59,12.01,47.59359,-54.27349
2023-11-30 08:04:00+00:00,257.0,6.9,255.0,8.07,12.01,47.59359,-54.27349
2023-11-30 08:14:00+00:00,251.0,6.87,251.0,7.75,12.01,47.59359,-54.27349
2023-11-30 08:24:00+00:00,241.0,6.74,247.0,7.68,12.01,47.59359,-54.27349
2023-11-30 08:34:00+00:00,252.0,6.46,259.0,8.65,12.01,47.59359,-54.27349
2023-11-30 08:44:00+00:00,258.0,6.87,264.0,7.92,12.01,47.59359,-54.27349
2023-11-30 08:54:00+00:00,256.0,9.18,258.0,10.7,12.01,47.59359,-54.27349
2023-11-30 09:04:00+00:00,250.0,6.18,250.0,7.7,12.01,47.59359,-54.27349
2023-11-30 09:14:01+00:00,250.0,8.43,251.0,9.49,12.01,47.59359,-54.27349
2023-11-30 09:24:01+00:00,245.0,5.61,245.0,6.48,12.01,47.59359,-54.27349
2023-11-30 09:34:01+00:00,253.0,5.25,257.0,6.83,12.01,47.59359,-54.27349
2023-11-30 09:44:01+00:00,252.0,5.42,252.0,6.81,12.01,47.59359,-54.27349
2023-11-30 09:54:01+00:00,244.0,6.16,242.0,6.98,12.01,47.59359,-54.27349
2023-11-30 10:04:01+00:00,244.0,8.01,239.0,9.41,12.01,47.59359,-54.27349
2023-11-30 10:14:00+00:00,244.0,7.09,247.0,8.28,12.01,47.59359,-54.27349
2023-11-30 10:24:00+00:00,260.0,6.7,257.0,8.19,12.01,47.59359,-54.27349
2023-11-30 10:34:00+00:00,263.0,6.28,263.0,8.03,12.01,47.59359,-54.27349
2023-11-30 10:44:00+00:00,251.0,9.87,249.0,11.24,12.01,47.59359,-54.27349
2023-11-30 10:54:00+00:00,236.0,7.57,241.0,8.81,12.01,47.59359,-54.27349
2023-11-30 11:04:00+00:00,234.0,6.71,236.0,7.93,12.01,47.59359,-54.27349
2023-11-30 11:14:00+00:00,236.0,5.29,232.0,6.1,12.01,47.59359,-54.27349
2023-11-30 11:24:00+00:00,248.0,5.48,245.0,6.41,12.01,47.59359,-54.27349
2023-11-30 11:34:00+00:00,246.0,5.75,248.0,6.5,12.01,47.59359,-54.27349
2023-11-30 11:44:00+00:00,236.0,8.29,235.0,9.55,12.01,47.59359,-54.27349
2023-11-30 11:54:00+00:00,252.0,6.6,251.0,8.1,12.01,47.59359,-54.27349
2023-11-30 12:04:00+00:00,265.0,5.31,270.0,6.08,12.01,47.59359,-54.27349
2023-11-30 12:14:00+00:00,255.0,4.1,255.0,4.34,12.65,47.59359,-54.27349
2023-11-30 12:24:00+00:00,254.0,4.17,261.0,4.58,12.65,47.59359,-54.27349
2023-11-30 12:34:00+00:00,266.0,4.84,267.0,5.39,12.65,47.59359,-54.27349
2023-11-30 12:44:00+00:00,265.0,5.32,257.0,6.0,12.65,47.59359,-54.27349
2023-11-30 12:54:00+00:00,251.0,5.24,252.0,5.74,12.65,47.59359,-54.27349
2023-11-30 13:04:00+00:00,244.0,4.37,241.0,5.01,12.65,47.59359,-54.27349
2023-11-30 13:14:00+00:00,249.0,5.35,251.0,5.97,13.6,47.59359,-54.27349
2023-11-30 13:24:00+00:00,253.0,5.47,253.0,6.02,13.6,47.59359,-54.27349
2023-11-30 13:34:00+00:00,251.0,3.97,251.0,4.57,13.6,47.59359,-54.27349
2023-11-30 13:44:00+00:00,239.0,2.85,243.0,4.09,13.6,47.59359,-54.27349
2023-11-30 13:54:00+00:00,246.0,4.22,245.0,4.57,13.6,47.59359,-54.27349
2023-11-30 14:04:00+00:00,248.0,3.88,250.0,4.26,13.6,47.59359,-54.27349
2023-11-30 14:14:00+00:00,255.0,5.09,258.0,5.28,13.68,47.59359,-54.27349
2023-11-30 14:24:00+00:00,255.0,4.81,258.0,5.09,13.68,47.59359,-54.27349
2023-11-30 14:34:00+00:00,258.0,5.19,260.0,6.11,13.68,47.59359,-54.27349
2023-11-30 14:44:00+00:00,315.0,0.01,257.0,0.0,13.68,47.59359,-54.27349
2023-11-30 14:54:00+00:00,253.0,5.32,248.0,5.79,13.68,47.59359,-54.27349
2023-11-30 15:04:00+00:00,262.0,5.13,257.0,5.58,13.68,47.59359,-54.27349
2023-11-30 15:14:00+00:00,275.0,4.1,277.0,5.17,14.24,47.59359,-54.27349
2023-11-30 15:24:00+00:00,255.0,3.88,252.0,4.37,14.24,47.59359,-54.27349
2023-11-30 15:34:00+00:00,244.0,4.08,246.0,4.84,14.24,47.59359,-54.27349
2023-11-30 15:44:00+00:00,255.0,3.92,253.0,4.71,14.24,47.59359,-54.27349
2023-11-30 15:54:00+00:00,257.0,4.39,256.0,5.22,14.24,47.59359,-54.27349
2023-11-30 16:04:00+00:00,260.0,3.49,264.0,4.64,14.24,47.59359,-54.27349
2023-11-30 16:14:00+00:00,245.0,3.62,253.0,4.29,14.16,47.59359,-54.27349
2023-11-30 16:24:00+00:00,258.0,3.51,280.0,4.26,14.16,47.59359,-54.27349
2023-11-30 16:34:00+00:00,264.0,3.98,270.0,4.81,14.16,47.59359,-54.27349
2023-11-30 16:44:00+00:00,251.0,3.85,245.0,4.68,14.16,47.59359,-54.27349
2023-11-30 16:54:00+00:00,265.0,3.55,266.0,3.89,14.16,47.59359,-54.27349
2023-11-30 17:04:00+00:00,257.0,4.85,259.0,4.93,14.16,47.59359,-54.27349
2023-11-30 17:14:00+00:00,257.0,2.77,256.0,4.01,13.6,47.59359,-54.27349
2023-11-30 17:24:00+00:00,260.0,2.59,244.0,3.18,13.6,47.59359,-54.27349
2023-11-30 17:34:00+00:00,260.0,2.15,259.0,2.61,13.6,47.59359,-54.27349
2023-11-30 17:44:00+00:00,284.0,2.34,281.0,2.74,13.6,47.59359,-54.27349
2023-11-30 17:54:00+00:00,289.0,3.31,292.0,4.15,13.6,47.59359,-54.27349
2023-11-30 18:04:00+00:00,302.0,2.23,301.0,2.64,13.6,47.59359,-54.27349
2023-11-30 18:14:00+00:00,351.0,2.26,344.0,2.77,13.37,47.59359,-54.27349
2023-11-30 18:24:00+00:00,301.0,2.16,310.0,2.76,13.37,47.59359,-54.27349
2023-11-30 18:34:00+00:00,303.0,1.46,309.0,2.3,13.37,47.59359,-54.27349
2023-11-30 18:44:00+00:00,3.0,1.62,5.0,1.96,13.37,47.59359,-54.27349
2023-11-30 18:54:00+00:00,302.0,1.21,301.0,1.78,13.37,47.59359,-54.27349
2023-11-30 19:04:00+00:00,268.0,1.74,274.0,2.17,13.37,47.59359,-54.27349
2023-11-30 19:14:00+00:00,259.0,1.64,250.0,2.02,13.29,47.59359,-54.27349
2023-11-30 19:24:00+00:00,254.0,1.51,256.0,2.03,13.29,47.59359,-54.27349
2023-11-30 19:34:00+00:00,281.0,3.04,277.0,3.67,13.29,47.59359,-54.27349
2023-11-30 19:44:00+00:00,272.0,2.52,274.0,2.86,13.29,47.59359,-54.27349
2023-11-30 19:54:00+00:00,249.0,2.32,244.0,2.69,13.29,47.59359,-54.27349
2023-11-30 20:04:00+00:00,245.0,2.53,252.0,3.18,13.29,47.59359,-54.27349
2023-11-30 20:14:00+00:00,265.0,3.17,263.0,3.6,12.57,47.59359,-54.27349
2023-11-30 20:24:00+00:00,257.0,2.73,262.0,3.7,12.57,47.59359,-54.27349
2023-11-30 20:34:00+00:00,244.0,3.47,246.0,4.11,12.57,47.59359,-54.27349
2023-11-30 20:44:00+00:00,270.0,3.54,269.0,4.04,12.57,47.59359,-54.27349
2023-11-30 20:54:00+00:00,264.0,3.35,258.0,3.8,12.57,47.59359,-54.27349
2023-11-30 21:04:00+00:00,293.0,3.55,291.0,4.13,12.57,47.59359,-54.27349
2023-11-30 21:14:00+00:00,284.0,2.85,290.0,3.5,12.49,47.59359,-54.27349
2023-11-30 21:24:00+00:00,299.0,2.47,302.0,2.99,12.49,47.59359,-54.27349
2023-11-30 21:34:00+00:00,285.0,1.88,283.0,2.22,12.49,47.59359,-54.27349
2023-11-30 21:44:00+00:00,288.0,2.04,282.0,2.66,12.49,47.59359,-54.27349
2023-11-30 21:54:00+00:00,313.0,2.27,323.0,2.7,12.49,47.59359,-54.27349
2023-11-30 22:04:00+00:00,4.0,2.52,355.0,3.03,12.49,47.59359,-54.27349
2023-11-30 22:14:00+00:00,331.0,2.72,327.0,3.32,12.49,47.59359,-54.27349
2023-11-30 22:24:00+00:00,321.0,1.19,323.0,1.9,12.49,47.59359,-54.27349
2023-11-30 22:34:00+00:00,292.0,2.0,296.0,2.39,12.49,47.59359,-54.27349
2023-11-30 22:44:00+00:00,251.0,2.18,244.0,3.19,12.49,47.59359,-54.27349
2023-11-30 22:54:00+00:00,252.0,2.41,254.0,2.92,12.49,47.59359,-54.27349
2023-11-30 23:04:00+00:00,230.0,1.64,237.0,1.99,12.49,47.59359,-54.27349
2023-11-30 23:14:00+00:00,245.0,1.66,242.0,2.27,12.41,47.59359,-54.27349
2023-11-30 23:24:00+00:00,242.0,1.53,243.0,2.07,12.41,47.59359,-54.27349
2023-11-30 23:34:00+00:00,235.0,3.65,231.0,4.37,12.41,47.59359,-54.27349
2023-11-30 23:44:00+00:00,243.0,4.85,238.0,5.59,12.41,47.59359,-54.27349
2023-11-30 23:54:00+00:00,246.0,4.62,249.0,6.35,12.41,47.59359,-54.27349
